When you browse on this site, cookies collect data to enhance your experience and personalize the content and advertising you see.
Visit our Privacy Policy to learn more. By continuing to use the site, you agree to this use of cookies and data.
  • Em Portugal
  • Lista de países
  • Para 7 dias
  • Temperatura da água
  • Mapa do tempo
  • Widgets de tempo
  • user-avatar
    Iniciar Sessão

    Previsão horária em Belize

    Hoje, 24 Outubro, Quinta-feira

    Tempo Temperatura Precipitação Vento Pressão Humidade
    00:00 +27°C° 0.4 mm 6 m/s 757 mmHg 98%
    01:00 +26°C° 1 mm 6 m/s 757 mmHg 98%
    02:00 +26°C° 1 mm 7 m/s 756 mmHg 97%
    03:00 +26°C° 1 mm 7 m/s 756 mmHg 97%
    04:00 +26°C° 2.7 mm 7 m/s 757 mmHg 97%
    05:00 +26°C° 2.7 mm 7 m/s 757 mmHg 97%
    06:00 +26°C° 2.7 mm 7 m/s 757 mmHg 97%
    07:00 +27°C° 1.6 mm 7 m/s 758 mmHg 97%
    08:00 +27°C° 1.6 mm 6 m/s 758 mmHg 96%
    09:00 +28°C° 1.6 mm 6 m/s 759 mmHg 96%
    10:00 +29°C° 1 mm 6 m/s 758 mmHg 95%
    11:00 +29°C° 1 mm 6 m/s 758 mmHg 94%
    12:00 +30°C° 1 mm 5 m/s 757 mmHg 93%
    13:00 +29°C° 0.9 mm 5 m/s 757 mmHg 93%
    14:00 +29°C° 0.9 mm 5 m/s 756 mmHg 93%
    15:00 +29°C° 0.9 mm 5 m/s 755 mmHg 93%
    16:00 +28°C° 0.3 mm 5 m/s 756 mmHg 94%
    17:00 +27°C° 0.3 mm 5 m/s 756 mmHg 96%
    18:00 +26°C° 0.3 mm 5 m/s 756 mmHg 98%
    19:00 +26°C° 0.2 mm 5 m/s 756 mmHg 98%
    20:00 +26°C° 0.2 mm 5 m/s 757 mmHg 98%
    21:00 +26°C° 0.2 mm 5 m/s 757 mmHg 99%
    22:00 +26°C° 0.2 mm 5 m/s 757 mmHg 99%
    23:00 +26°C° 0.2 mm 5 m/s 757 mmHg 98%

    Amanhã, 25 Outubro, Sexta-feira

    Tempo Temperatura Precipitação Vento Pressão Humidade
    00:00 +26°C° 0.2 mm 5 m/s 757 mmHg 98%
    01:00 +26°C° 0 mm 5 m/s 756 mmHg 98%
    02:00 +26°C° 0 mm 5 m/s 756 mmHg 98%
    03:00 +26°C° 0 mm 5 m/s 756 mmHg 98%
    04:00 +26°C° 0 mm 5 m/s 756 mmHg 98%
    05:00 +26°C° 0 mm 5 m/s 756 mmHg 98%
    06:00 +26°C° 0 mm 5 m/s 757 mmHg 98%
    07:00 +27°C° 0.1 mm 5 m/s 757 mmHg 92%
    08:00 +29°C° 0.1 mm 5 m/s 757 mmHg 87%
    09:00 +30°C° 0.1 mm 5 m/s 758 mmHg 82%
    10:00 +32°C° 0.2 mm 5 m/s 757 mmHg 76%
    11:00 +33°C° 0.2 mm 4 m/s 757 mmHg 69%
    12:00 +34°C° 0.2 mm 4 m/s 756 mmHg 63%
    13:00 +33°C° 0.1 mm 5 m/s 756 mmHg 67%
    14:00 +33°C° 0.1 mm 5 m/s 755 mmHg 71%
    15:00 +32°C° 0.1 mm 5 m/s 754 mmHg 75%
    16:00 +30°C° 0.1 mm 5 m/s 755 mmHg 82%
    17:00 +28°C° 0.1 mm 5 m/s 755 mmHg 89%
    18:00 +27°C° 0.1 mm 5 m/s 755 mmHg 95%
    19:00 +27°C° 0 mm 5 m/s 756 mmHg 96%
    20:00 +26°C° 0 mm 5 m/s 756 mmHg 97%
    21:00 +26°C° 0 mm 4 m/s 757 mmHg 98%
    22:00 +26°C° 0 mm 4 m/s 757 mmHg 98%
    23:00 +26°C° 0 mm 4 m/s 756 mmHg 97%

    Depois de amanhã, 26 Outubro, Sábado

    Tempo Temperatura Precipitação Vento Pressão Humidade
    00:00 +26°C° 0 mm 4 m/s 756 mmHg 97%
    01:00 +26°C° 0.1 mm 4 m/s 756 mmHg 97%
    02:00 +26°C° 0.1 mm 4 m/s 756 mmHg 97%
    03:00 +26°C° 0.1 mm 4 m/s 755 mmHg 98%
    04:00 +26°C° 0.2 mm 3 m/s 756 mmHg 98%
    05:00 +26°C° 0.2 mm 3 m/s 756 mmHg 98%
    06:00 +26°C° 0.2 mm 3 m/s 756 mmHg 98%
    07:00 +27°C° 0.5 mm 3 m/s 757 mmHg 96%
    08:00 +28°C° 0.5 mm 2 m/s 757 mmHg 94%
    09:00 +30°C° 0.5 mm 2 m/s 758 mmHg 92%
    10:00 +30°C° 1.6 mm 2 m/s 757 mmHg 91%
    11:00 +30°C° 1.6 mm 2 m/s 757 mmHg 91%
    12:00 +30°C° 1.6 mm 2 m/s 756 mmHg 90%
    13:00 +30°C° 1.9 mm 2 m/s 756 mmHg 90%
    14:00 +30°C° 1.9 mm 2 m/s 755 mmHg 89%
    15:00 +30°C° 1.9 mm 2 m/s 755 mmHg 89%
    16:00 +29°C° 1 mm 2 m/s 755 mmHg 91%
    17:00 +28°C° 1 mm 2 m/s 756 mmHg 94%
    18:00 +26°C° 1 mm 2 m/s 756 mmHg 96%
    19:00 +26°C° 2.4 mm 2 m/s 757 mmHg 97%
    20:00 +26°C° 2.4 mm 2 m/s 757 mmHg 98%
    21:00 +25°C° 2.4 mm 2 m/s 758 mmHg 98%
    22:00 +25°C° 0.5 mm 3 m/s 758 mmHg 98%
    23:00 +23°C° 0.5 mm 4 m/s 758 mmHg 98%

    , 27 Outubro, Domingo

    Tempo Temperatura Precipitação Vento Pressão Humidade
    00:00 +23°C° 0.5 mm 5 m/s 757 mmHg 98%
    01:00 +23°C° 0 mm 5 m/s 757 mmHg 98%
    02:00 +23°C° 0 mm 6 m/s 757 mmHg 98%
    03:00 +22°C° 0 mm 6 m/s 757 mmHg 98%
    04:00 +22°C° 0 mm 6 m/s 757 mmHg 98%
    05:00 +22°C° 0 mm 5 m/s 757 mmHg 98%
    06:00 +22°C° 0 mm 5 m/s 757 mmHg 98%
    07:00 +25°C° 0 mm 5 m/s 758 mmHg 92%
    08:00 +27°C° 0 mm 5 m/s 758 mmHg 85%
    09:00 +28°C° 0 mm 5 m/s 759 mmHg 79%
    10:00 +29°C° 0 mm 4 m/s 758 mmHg 73%
    11:00 +31°C° 0 mm 3 m/s 758 mmHg 67%
    12:00 +33°C° 0 mm 3 m/s 757 mmHg 61%
    13:00 +33°C° 0.3 mm 3 m/s 757 mmHg 66%
    14:00 +33°C° 0.3 mm 3 m/s 756 mmHg 70%
    15:00 +33°C° 0.3 mm 3 m/s 756 mmHg 74%
    16:00 +30°C° 0.5 mm 3 m/s 756 mmHg 81%
    17:00 +28°C° 0.5 mm 3 m/s 757 mmHg 89%
    18:00 +26°C° 0.5 mm 3 m/s 757 mmHg 96%
    19:00 +26°C° 0 mm 2 m/s 757 mmHg 97%
    20:00 +25°C° 0 mm 2 m/s 758 mmHg 97%
    21:00 +25°C° 0 mm 1 m/s 758 mmHg 98%
    22:00 +25°C° 0.1 mm 1 m/s 758 mmHg 98%
    23:00 +25°C° 0.1 mm 2 m/s 758 mmHg 98%

    27 Outubro, Domingo

    Tempo Temperatura Precipitação Vento Pressão Humidade
    00:00 +23°C° 0.5 mm 5 m/s 757 mmHg 98%
    01:00 +23°C° 0 mm 5 m/s 757 mmHg 98%
    02:00 +23°C° 0 mm 6 m/s 757 mmHg 98%
    03:00 +22°C° 0 mm 6 m/s 757 mmHg 98%
    04:00 +22°C° 0 mm 6 m/s 757 mmHg 98%
    05:00 +22°C° 0 mm 5 m/s 757 mmHg 98%
    06:00 +22°C° 0 mm 5 m/s 757 mmHg 98%
    07:00 +25°C° 0 mm 5 m/s 758 mmHg 92%
    08:00 +27°C° 0 mm 5 m/s 758 mmHg 85%
    09:00 +28°C° 0 mm 5 m/s 759 mmHg 79%
    10:00 +29°C° 0 mm 4 m/s 758 mmHg 73%
    11:00 +31°C° 0 mm 3 m/s 758 mmHg 67%
    12:00 +33°C° 0 mm 3 m/s 757 mmHg 61%
    13:00 +33°C° 0.3 mm 3 m/s 757 mmHg 66%
    14:00 +33°C° 0.3 mm 3 m/s 756 mmHg 70%
    15:00 +33°C° 0.3 mm 3 m/s 756 mmHg 74%
    16:00 +30°C° 0.5 mm 3 m/s 756 mmHg 81%
    17:00 +28°C° 0.5 mm 3 m/s 757 mmHg 89%
    18:00 +26°C° 0.5 mm 3 m/s 757 mmHg 96%
    19:00 +26°C° 0 mm 2 m/s 757 mmHg 97%
    20:00 +25°C° 0 mm 2 m/s 758 mmHg 97%
    21:00 +25°C° 0 mm 1 m/s 758 mmHg 98%
    22:00 +25°C° 0.1 mm 1 m/s 758 mmHg 98%
    23:00 +25°C° 0.1 mm 2 m/s 758 mmHg 98%

    28 Outubro, Segunda-feira

    Tempo Temperatura Precipitação Vento Pressão Humidade
    00:00 +25°C° 0.1 mm 2 m/s 758 mmHg 99%
    01:00 +24°C° 0.3 mm 2 m/s 757 mmHg 99%
    02:00 +24°C° 0.3 mm 3 m/s 757 mmHg 99%
    03:00 +24°C° 0.3 mm 3 m/s 757 mmHg 99%
    04:00 +24°C° 0 mm 3 m/s 757 mmHg 99%
    05:00 +24°C° 0 mm 3 m/s 757 mmHg 99%
    06:00 +24°C° 0 mm 3 m/s 757 mmHg 99%
    07:00 +25°C° 0 mm 3 m/s 758 mmHg 92%
    08:00 +27°C° 0 mm 3 m/s 758 mmHg 85%
    09:00 +29°C° 0 mm 3 m/s 759 mmHg 78%
    10:00 +31°C° 0 mm 3 m/s 758 mmHg 70%
    11:00 +34°C° 0 mm 3 m/s 758 mmHg 62%
    12:00 +36°C° 0 mm 3 m/s 757 mmHg 55%
    13:00 +35°C° 0.1 mm 3 m/s 757 mmHg 60%
    14:00 +34°C° 0.1 mm 4 m/s 756 mmHg 65%
    15:00 +33°C° 0.1 mm 4 m/s 755 mmHg 70%
    16:00 +30°C° 0.2 mm 4 m/s 756 mmHg 78%
    17:00 +28°C° 0.2 mm 4 m/s 756 mmHg 85%
    18:00 +27°C° 0.2 mm 4 m/s 757 mmHg 92%
    19:00 +26°C° 1.6 mm 4 m/s 757 mmHg 94%
    20:00 +26°C° 1.6 mm 4 m/s 757 mmHg 96%
    21:00 +26°C° 1.6 mm 4 m/s 758 mmHg 98%
    22:00 +25°C° 0.8 mm 4 m/s 758 mmHg 98%
    23:00 +25°C° 0.8 mm 4 m/s 757 mmHg 98%

    29 Outubro, Terça-feira

    Tempo Temperatura Precipitação Vento Pressão Humidade
    00:00 +25°C° 0.8 mm 3 m/s 757 mmHg 98%
    01:00 +25°C° 0.7 mm 3 m/s 757 mmHg 98%
    02:00 +25°C° 0.7 mm 2 m/s 757 mmHg 98%
    03:00 +25°C° 0.7 mm 2 m/s 757 mmHg 98%
    04:00 +25°C° 0.3 mm 2 m/s 757 mmHg 98%
    05:00 +25°C° 0.3 mm 2 m/s 757 mmHg 99%
    06:00 +25°C° 0.3 mm 2 m/s 758 mmHg 99%
    07:00 +26°C° 0.3 mm 2 m/s 758 mmHg 93%
    08:00 +28°C° 0.3 mm 2 m/s 758 mmHg 87%
    09:00 +30°C° 0.3 mm 2 m/s 759 mmHg 82%
    10:00 +30°C° 0.3 mm 1 m/s 758 mmHg 82%
    11:00 +30°C° 0.3 mm 1 m/s 758 mmHg 83%
    12:00 +30°C° 0.3 mm 1 m/s 757 mmHg 83%
    13:00 +31°C° 0.1 mm 2 m/s 757 mmHg 76%
    14:00 +33°C° 0.1 mm 3 m/s 756 mmHg 69%
    15:00 +33°C° 0.1 mm 3 m/s 756 mmHg 61%
    16:00 +30°C° 0 mm 3 m/s 756 mmHg 69%
    17:00 +29°C° 0 mm 3 m/s 757 mmHg 77%
    18:00 +27°C° 0 mm 3 m/s 757 mmHg 86%
    19:00 +26°C° 0.3 mm 3 m/s 758 mmHg 88%
    20:00 +26°C° 0.3 mm 3 m/s 758 mmHg 90%
    21:00 +25°C° 0.3 mm 3 m/s 758 mmHg 92%
    22:00 +25°C° 1.1 mm 3 m/s 758 mmHg 93%
    23:00 +25°C° 1.1 mm 3 m/s 758 mmHg 94%
    Mostrar mais